Wind_Speed
1 1 2 2 2 2 1 1 1 1 1 1 1 2 2 2 1 1 1 2 2 2 2 3 4 4 4 3 3 4 4 4 5 5 5 5 5 5 5 5 5 6 6 6 7 7 8 8 8
2 2 2 3 3 2 2 1 1 1 1 1 1 1 2 2 2 1 1 1 1 2 3 3 4 4 4 4 4 4 5 5 5 5 5 5 6 6 7 6 6 6 6 7 7 8 9 9 9
3 3 3 3 3 3 2 2 2 2 2 2 2 1 1 2 2 1 1 1 2 3 3 4 4 5 5 5 5 5 6 6 6 6 6 6 7 7 7 7 7 7 7 7 8 8 9 9 9
3 3 4 4 4 4 4 4 4 4 3 3 2 2 2 2 2 2 2 2 3 4 4 4 4 5 5 6 6 5 5 5 5 6 7 7 7 8 8 7 7 7 8 8 8 8 9 9 9
3 4 4 5 5 5 4 4 4 4 4 3 3 3 3 3 3 3 3 3 4 5 5 4 5 5 5 5 5 5 5 5 6 7 7 8 8 8 9 8 8 8 9 9 9 9 9 9 9
4 4 4 4 4 5 5 4 4 4 4 4 3 4 4 4 4 4 5 5 6 6 5 5 4 4 4 4 5 5 6 6 7 7 8 8 8 8 9 9 9 9 9 9 10 10 10 10 9
4 5 4 4 4 5 4 4 4 5 5 4 5 4 4 5 5 5 5 6 6 6 6 5 5 5 5 5 5 6 6 7 7 8 9 9 9 9 10 10 10 10 10 10 10 10 10 10 10
6 6 5 4 5 5 5 5 5 5 5 5 5 5 5 5 5 6 6 6 6 6 6 6 6 6 6 6 7 7 8 8 9 9 10 10 10 10 10 10 10 11 11 11 11 11 11 10 11
7 7 6 5 5 5 5 5 5 5 5 6 5 5 5 5 6 6 6 6 6 6 5 6 6 6 7 7 8 8 9 9 10 10 10 10 11 11 11 11 11 11 11 11 11 11 11 11 11
7 7 6 5 5 5 5 5 5 5 4 5 5 5 5 5 5 5 6 6 6 6 6 6 7 7 8 8 8 9 10 10 10 11 11 11 12 11 11 12 12 11 11 11 11 12 11 11 11
7 7 5 5 5 5 5 5 5 5 5 5 5 5 5 6 5 5 5 6 6 6 7 6 7 8 9 9 9 10 10 10 11 11 11 12 12 12 12 12 12 12 12 12 12 12 12 12 12
7 6 6 5 6 6 5 4 4 4 5 6 6 5 5 5 6 6 6 6 6 6 7 7 8 9 9 10 10 10 10 10 11 11 12 12 12 12 13 13 13 13 13 13 13 13 12 12 12
7 6 6 6 6 5 5 5 4 4 5 5 5 5 5 6 5 6 6 6 7 6 7 7 8 9 10 10 11 11 11 11 12 12 11 12 12 12 13 14 14 13 13 13 13 13 13 12 12
7 7 6 6 6 6 5 5 5 5 6 6 5 6 6 6 6 6 6 7 8 8 8 8 8 9 10 10 11 11 12 12 12 12 13 12 12 12 13 13 13 13 13 13 13 13 13 13 13
7 7 7 6 6 6 6 5 5 6 6 6 6 6 6 7 7 7 7 7 8 8 9 9 9 10 10 11 11 11 11 12 12 13 13 13 13 12 12 12 12 12 12 13 13 13 14 13 12
8 7 7 7 7 7 6 6 6 6 5 6 6 6 7 7 8 8 8 8 8 8 9 9 10 10 10 10 11 12 12 12 12 13 13 13 12 12 11 12 12 12 13 13 13 13 13 13 12
7 7 7 7 7 7 7 7 7 6 6 7 7 7 7 7 8 8 8 8 8 9 9 9 9 10 10 11 11 12 13 13 12 12 12 12 12 12 11 11 11 12 12 12 12 12 12 12 12
7 8 8 8 8 8 7 7 7 7 7 7 7 7 8 8 8 8 9 9 9 10 10 9 9 10 11 11 11 12 13 13 13 13 12 12 12 12 13 12 12 12 12 12 12 12 12 12 11
8 8 8 9 8 8 8 8 8 8 8 8 8 8 8 8 9 9 10 10 10 10 11 11 10 10 11 11 11 12 12 12 13 13 13 13 13 13 13 13 13 12 12 12 12 12 11 11 11
9 9 9 10 10 9 9 8 8 9 9 10 9 9 9 9 10 10 10 10 11 11 11 11 12 12 12 12 12 12 12 12 13 13 13 13 13 13 13 13 13 13 13 13 12 11 11 11 11
10 10 10 11 11 10 10 9 9 9 9 10 10 11 11 11 11 11 11 11 12 12 12 12 12 12 13 13 14 14 13 13 13 13 13 13 13 13 13 13 13 12 12 12 12 12 11 11 11
10 10 11 11 11 10 10 9 10 10 10 10 11 11 12 12 12 12 12 12 13 13 14 14 14 14 14 15 15 15 15 14 13 13 13 13 13 13 13 14 13 12 12 12 13 13 13 13 13
10 11 11 11 11 11 11 11 10 11 11 12 12 13 13 13 13 13 13 14 14 15 15 15 16 16 16 16 16 15 15 15 14 14 14 14 14 14 14 14 13 13 13 13 13 13 13 13 13
12 12 13 13 13 12 12 13 11 12 12 12 13 13 13 14 14 14 15 15 15 15 16 16 16 17 17 17 17 16 16 16 15 15 15 15 15 15 15 15 14 14 14 14 14 14 13 13 13
13 13 14 14 14 13 13 14 12 13 13 13 14 14 14 15 15 16 16 16 16 16 17 17 17 17 18 18 17 17 17 17 17 16 16 16 16 16 15 15 15 15 14 14 15 14 14 14 14
14 15 15 16 15 14 15 14 12 13 14 14 15 15 15 15 16 16 17 17 17 18 18 18 18 18 18 18 18 17 18 18 18 18 17 17 17 16 16 15 16 15 15 15 15 15 15 15 15
15 15 15 16 16 16 15 14 13 13 14 15 15 16 16 16 17 17 18 18 18 18 18 19 19 19 19 19 18 18 18 18 18 18 18 17 18 17 17 16 16 15 15 15 15 15 15 15 15
15 15 16 17 17 17 15 14 13 14 15 15 16 16 17 18 18 18 19 19 19 19 19 20 20 20 20 20 19 19 19 19 18 18 18 18 19 18 18 17 17 16 16 16 16 16 16 16 16
16 16 17 18 19 19 18 15 15 15 16 17 18 18 18 18 19 19 20 20 20 20 20 20 20 21 21 21 21 20 19 19 19 19 19 19 19 19 18 18 17 17 17 17 16 16 16 16 16
17 18 19 20 20 20 20 18 17 17 17 18 19 20 20 20 20 20 20 20 20 20 20 20 21 21 22 21 21 20 19 19 20 20 20 20 20 20 20 19 19 18 18 18 18 17 17 17 17
Wind_Direction
263 265 267 276 279 268 300 345 7 39 52 58 71 85 63 31 29 44 44 34 20 9 348 340 335 336 336 333 328 333 333 330 332 335 335 331 328 329 326 320 328 318 310 307 301 297 295 295 297
265 267 274 284 288 294 296 306 334 345 346 342 4 37 40 16 22 10 359 9 3 335 323 318 320 328 331 326 317 315 318 318 319 324 326 323 323 324 323 320 319 314 311 306 301 295 294 294 294
275 272 277 280 280 276 283 286 293 299 301 297 294 328 333 352 9 352 331 327 327 315 311 310 304 309 317 316 311 310 312 312 312 315 315 312 312 314 314 311 308 306 305 303 300 295 294 296 295
279 281 281 276 271 273 275 277 283 289 286 279 288 309 301 303 313 306 299 293 298 296 297 303 302 306 313 313 308 312 316 315 316 319 316 309 308 308 309 307 303 301 301 299 296 296 296 296 300
286 286 287 283 279 278 275 268 281 279 281 289 295 298 295 292 289 288 291 286 283 285 282 286 294 299 304 308 307 307 311 307 307 311 316 313 308 306 306 303 301 300 298 297 296 296 296 294 300
299 298 294 290 283 282 277 269 279 285 290 290 288 283 284 288 282 276 281 280 276 276 280 283 290 296 294 296 303 307 301 299 302 306 311 313 310 306 304 303 303 301 298 296 295 296 297 294 296
299 300 296 291 289 288 281 279 278 284 286 284 280 276 276 278 278 277 278 277 275 276 273 276 280 288 295 301 305 302 299 298 301 306 309 311 311 308 304 299 296 296 295 295 295 296 299 297 294
296 299 296 290 293 289 284 280 274 275 278 275 272 271 275 281 278 276 279 279 279 280 273 272 277 282 288 292 298 299 296 295 297 302 305 307 306 305 302 297 296 294 293 293 294 293 295 296 296
289 297 299 294 295 290 285 283 276 271 274 269 269 272 275 278 277 275 280 281 282 284 278 278 281 285 287 288 291 294 294 293 293 296 300 302 301 300 298 297 297 295 293 293 293 293 294 294 294
283 286 292 292 292 289 288 289 284 276 276 274 271 271 272 272 274 280 283 284 285 285 283 286 289 289 294 292 292 294 295 294 294 294 297 298 298 297 297 295 296 294 292 291 290 292 293 293 292
276 276 284 287 290 290 291 290 283 276 276 277 277 273 271 270 272 279 283 283 283 286 286 289 290 290 293 298 298 294 294 297 298 297 300 299 297 296 296 295 293 291 288 286 286 287 289 290 288
275 277 282 286 289 289 291 290 286 284 281 280 281 279 277 278 278 277 280 285 285 286 286 288 291 293 294 297 299 300 296 298 300 299 300 300 299 298 295 293 290 289 286 283 282 284 286 286 284
271 276 280 285 287 290 290 287 292 292 291 290 286 284 280 280 281 280 281 285 286 284 287 288 290 294 296 296 294 295 299 299 300 300 299 300 300 299 298 295 292 289 287 285 283 284 284 282 281
267 274 280 282 285 289 291 289 293 289 290 289 283 280 277 276 278 281 282 284 287 285 285 287 291 293 294 296 295 295 295 296 298 298 299 301 300 300 298 297 294 290 289 288 285 286 285 283 281
258 268 276 279 282 284 287 289 290 288 284 285 286 285 281 280 279 278 277 279 284 284 285 290 294 296 296 296 297 295 297 297 298 299 302 303 301 298 296 293 292 291 288 286 287 286 285 282 280
258 263 271 273 277 279 281 290 292 293 292 292 292 290 287 282 281 280 280 280 282 284 285 287 289 293 296 297 298 298 300 300 301 303 304 303 299 297 294 293 293 294 294 291 289 285 284 282 280
261 266 271 272 276 277 283 289 290 291 292 293 295 295 292 289 287 286 285 284 286 290 290 288 289 292 295 298 299 299 298 299 300 300 300 300 299 297 294 294 296 295 296 295 293 289 284 283 281
265 268 269 272 274 277 283 287 286 285 285 287 290 293 292 292 292 290 288 288 289 288 288 289 291 293 295 298 300 301 300 298 297 295 295 296 295 293 292 293 294 294 295 296 294 292 287 284 282
265 267 269 272 272 274 278 282 281 280 279 282 286 289 290 291 292 291 288 288 289 287 286 286 290 295 295 295 298 300 301 300 297 294 293 294 294 294 295 295 293 292 292 293 294 294 288 284 283
264 265 269 272 271 270 272 275 275 278 277 279 283 284 286 289 291 292 290 288 289 288 286 287 289 292 292 292 294 297 300 300 297 294 293 293 294 294 293 292 290 290 288 289 290 292 287 282 284
264 267 269 269 270 269 269 270 274 278 280 280 280 282 283 286 290 291 290 288 288 287 286 289 289 291 293 294 294 295 296 296 296 296 294 293 294 294 292 290 289 289 288 289 288 289 287 285 286
265 268 268 268 267 270 272 271 271 275 279 279 280 282 282 285 289 291 290 289 287 287 288 289 291 292 293 295 295 296 295 293 292 294 294 291 290 290 291 289 289 289 288 286 285 284 286 285 286
267 269 270 270 270 271 274 274 274 276 277 281 284 282 281 285 290 292 291 289 287 287 288 290 290 291 291 291 294 294 294 293 291 293 293 291 289 289 289 286 286 286 286 283 283 284 284 283 283
267 268 269 270 272 273 275 276 277 280 284 286 284 282 282 284 287 289 290 289 287 288 288 288 290 290 289 288 290 291 291 292 291 292 292 290 289 288 288 284 283 284 284 281 281 283 284 281 282
265 268 270 272 275 279 278 277 279 281 283 284 283 284 285 286 286 288 289 289 289 289 289 288 289 289 288 287 290 290 289 290 289 289 290 288 287 287 286 284 283 284 283 282 281 282 282 281 281
265 269 272 276 278 281 280 280 281 282 283 283 284 286 287 286 287 288 289 289 290 289 288 287 288 288 289 288 289 289 288 288 287 285 286 286 285 285 284 283 282 281 281 280 280 282 282 280 280
264 267 272 276 278 280 283 284 282 282 283 283 285 286 287 287 287 288 289 289 290 290 288 287 285 286 287 287 288 287 288 287 285 283 284 284 284 285 282 280 280 277 278 278 278 280 280 280 280
264 267 270 273 279 282 285 286 285 283 284 285 286 286 287 287 287 288 289 290 290 290 289 287 286 285 285 285 285 285 286 286 284 282 282 283 283 283 281 277 277 276 276 277 277 277 278 278 277
265 267 270 273 277 282 285 287 289 287 287 286 287 287 287 287 286 287 287 289 290 290 288 287 285 285 285 285 285 285 284 283 283 285 284 284 280 279 281 275 273 275 277 277 276 276 276 275 275
265 269 273 276 278 282 286 289 290 288 288 287 287 288 289 288 287 288 288 289 289 288 290 289 287 285 284 285 285 284 283 284 284 285 283 283 280 278 279 278 273 272 275 276 275 273 273 273 274
Height
5880 5880 5881 5882 5883 5882 5882 5882 5882 5882 5883 5883 5883 5883 5883 5884 5885 5887 5884 5883 5883 5883 5883 5882 5882 5881 5880 5880 5879 5879 5879 5878 5878 5877 5877 5877 5876 5876 5876 5876 5876 5876 5875 5875 5874 5873 5873 5872 5872
5880 5881 5882 5883 5882 5882 5883 5882 5882 5883 5883 5883 5883 5883 5883 5883 5883 5883 5883 5883 5883 5883 5883 5882 5882 5881 5880 5880 5879 5879 5878 5878 5877 5877 5876 5876 5876 5875 5875 5875 5875 5874 5874 5873 5873 5872 5871 5871 5870
5881 5882 5883 5883 5882 5883 5883 5882 5883 5883 5883 5883 5883 5883 5883 5883 5883 5883 5883 5883 5883 5882 5882 5881 5881 5880 5880 5879 5878 5878 5877 5877 5877 5876 5876 5875 5875 5874 5874 5874 5874 5873 5873 5872 5871 5871 5870 5869 5868
5881 5882 5883 5883 5882 5883 5882 5882 5882 5883 5883 5883 5883 5883 5882 5883 5883 5882 5882 5882 5882 5882 5881 5881 5880 5880 5879 5879 5878 5877 5876 5876 5876 5875 5875 5874 5874 5873 5873 5873 5872 5872 5871 5871 5870 5869 5869 5868 5866
5881 5882 5882 5881 5882 5882 5882 5882 5882 5882 5882 5882 5883 5882 5882 5882 5882 5882 5882 5882 5881 5881 5880 5880 5879 5879 5878 5878 5877 5876 5876 5875 5875 5874 5874 5873 5873 5872 5872 5871 5871 5870 5870 5869 5868 5868 5867 5866 5864
5881 5881 5881 5881 5881 5881 5881 5882 5882 5882 5882 5882 5882 5882 5882 5882 5882 5881 5881 5881 5880 5880 5879 5879 5878 5878 5877 5877 5876 5875 5875 5874 5874 5873 5873 5872 5871 5871 5870 5870 5869 5869 5868 5867 5867 5866 5865 5865 5864
5881 5880 5880 5880 5880 5881 5881 5881 5881 5881 5881 5881 5881 5881 5881 5881 5881 5880 5880 5880 5879 5879 5878 5878 5877 5877 5876 5876 5875 5874 5873 5873 5872 5872 5871 5870 5870 5869 5868 5868 5867 5867 5866 5866 5865 5864 5864 5863 5862
5880 5880 5879 5879 5879 5880 5880 5880 5880 5880 5880 5880 5880 5880 5880 5880 5879 5879 5879 5878 5878 5877 5877 5877 5876 5876 5875 5875 5874 5873 5872 5872 5871 5870 5870 5869 5868 5867 5867 5866 5865 5865 5864 5864 5863 5863 5862 5861 5861
5879 5880 5878 5878 5879 5879 5879 5879 5879 5879 5879 5879 5878 5879 5879 5878 5878 5878 5878 5877 5877 5876 5876 5876 5875 5875 5874 5873 5872 5872 5871 5870 5870 5869 5868 5867 5867 5866 5865 5864 5863 5863 5862 5862 5861 5861 5860 5859 5859
5878 5878 5878 5878 5878 5878 5878 5878 5878 5878 5878 5877 5877 5877 5877 5877 5877 5876 5876 5876 5875 5875 5875 5874 5874 5873 5872 5872 5871 5870 5869 5868 5868 5867 5866 5866 5865 5864 5863 5862 5861 5860 5860 5859 5859 5858 5858 5857 5856
5876 5876 5877 5877 5876 5876 5876 5876 5876 5876 5876 5876 5876 5876 5876 5875 5875 5875 5875 5874 5874 5874 5873 5873 5872 5872 5871 5870 5869 5869 5868 5867 5866 5865 5864 5863 5862 5861 5861 5860 5859 5858 5857 5857 5856 5856 5855 5855 5854
5875 5875 5875 5876 5875 5875 5875 5875 5875 5875 5875 5875 5875 5874 5874 5874 5874 5874 5873 5873 5873 5872 5872 5871 5871 5870 5869 5869 5868 5867 5866 5865 5864 5863 5862 5861 5860 5859 5858 5857 5856 5855 5855 5854 5854 5853 5852 5852 5851
5874 5874 5874 5874 5874 5874 5874 5874 5875 5874 5874 5874 5873 5873 5873 5873 5872 5872 5872 5871 5871 5871 5870 5870 5869 5869 5868 5867 5866 5865 5864 5863 5862 5861 5860 5859 5858 5857 5856 5855 5854 5853 5852 5851 5851 5850 5850 5849 5849
5873 5873 5873 5873 5873 5873 5874 5874 5874 5873 5873 5873 5873 5872 5872 5871 5871 5871 5870 5870 5869 5869 5868 5868 5867 5866 5866 5865 5864 5863 5862 5861 5860 5859 5858 5856 5855 5854 5853 5852 5851 5850 5849 5848 5848 5847 5847 5846 5846
5871 5872 5872 5872 5872 5872 5873 5873 5873 5872 5872 5872 5871 5871 5870 5870 5869 5869 5869 5868 5868 5867 5866 5865 5865 5864 5863 5863 5862 5861 5860 5859 5858 5856 5855 5854 5852 5851 5850 5850 5848 5847 5846 5846 5845 5844 5844 5843 5842
5870 5870 5871 5871 5871 5871 5873 5872 5871 5871 5870 5870 5870 5869 5869 5868 5868 5867 5867 5866 5865 5865 5864 5863 5862 5862 5861 5860 5859 5858 5857 5856 5855 5854 5852 5851 5850 5849 5848 5847 5846 5845 5844 5843 5842 5842 5841 5840 5840
5868 5869 5869 5870 5870 5870 5870 5870 5870 5869 5869 5868 5868 5867 5867 5866 5866 5865 5865 5864 5863 5863 5862 5861 5860 5860 5859 5858 5857 5856 5855 5853 5852 5851 5850 5848 5847 5846 5845 5844 5843 5842 5841 5840 5840 5839 5838 5838 5837
5867 5867 5868 5868 5868 5868 5868 5868 5868 5867 5867 5867 5866 5866 5865 5864 5864 5863 5863 5862 5861 5860 5859 5858 5858 5857 5856 5855 5854 5853 5852 5850 5849 5848 5847 5846 5844 5843 5842 5841 5840 5839 5838 5838 5837 5836 5835 5835 5834
5865 5866 5866 5866 5866 5866 5866 5866 5866 5866 5865 5865 5865 5864 5863 5863 5862 5861 5860 5859 5859 5858 5857 5856 5855 5854 5853 5852 5851 5850 5849 5847 5846 5845 5844 5843 5841 5840 5839 5838 5838 5837 5836 5835 5834 5833 5833 5832 5832
5863 5864 5864 5864 5864 5865 5865 5865 5864 5864 5863 5863 5862 5862 5861 5860 5859 5858 5858 5857 5856 5855 5854 5853 5852 5852 5851 5850 5848 5847 5846 5845 5843 5842 5841 5839 5838 5837 5836 5835 5835 5834 5833 5832 5831 5831 5830 5830 5829
5861 5862 5862 5862 5862 5862 5863 5863 5863 5862 5861 5860 5860 5859 5859 5858 5857 5856 5855 5854 5853 5853 5852 5851 5849 5849 5848 5847 5846 5844 5843 5841 5840 5839 5838 5837 5835 5834 5833 5832 5831 5831 5830 5829 5829 5828 5828 5827 5827
5859 5859 5859 5859 5860 5860 5861 5861 5861 5859 5859 5858 5857 5856 5856 5855 5854 5853 5852 5851 5850 5849 5849 5847 5846 5845 5845 5844 5842 5841 5839 5838 5837 5836 5835 5834 5832 5831 5830 5829 5828 5828 5827 5826 5826 5825 5825 5824 5824
5856 5857 5857 5857 5857 5858 5858 5858 5859 5857 5856 5855 5854 5854 5853 5852 5851 5850 5849 5848 5847 5846 5845 5844 5843 5842 5841 5840 5838 5837 5836 5834 5833 5832 5831 5830 5829 5828 5827 5826 5825 5825 5824 5823 5823 5822 5821 5821 5821
5854 5854 5854 5854 5854 5855 5855 5855 5856 5854 5853 5853 5852 5850 5849 5849 5848 5846 5845 5844 5843 5842 5841 5840 5839 5838 5836 5835 5834 5833 5832 5830 5829 5828 5827 5826 5825 5824 5823 5823 5822 5821 5820 5820 5819 5819 5818 5818 5817
5851 5852 5852 5851 5851 5852 5852 5851 5853 5851 5850 5849 5848 5847 5846 5845 5844 5843 5842 5840 5839 5838 5836 5835 5834 5833 5832 5831 5830 5829 5827 5826 5825 5824 5823 5822 5821 5820 5819 5818 5818 5817 5816 5816 5815 5815 5815 5814 5814
5848 5849 5849 5849 5849 5849 5848 5848 5850 5848 5846 5845 5844 5844 5842 5841 5840 5839 5837 5836 5835 5833 5832 5831 5829 5828 5827 5826 5825 5824 5823 5821 5820 5820 5819 5818 5817 5816 5815 5814 5814 5813 5813 5812 5812 5811 5811 5810 5810
5845 5845 5846 5845 5844 5844 5844 5845 5845 5844 5843 5842 5841 5839 5838 5837 5835 5834 5833 5831 5830 5828 5827 5826 5824 5823 5822 5821 5820 5819 5818 5816 5815 5815 5814 5813 5812 5811 5810 5810 5809 5809 5808 5808 5807 5807 5806 5806 5806
5842 5841 5842 5841 5840 5840 5841 5841 5841 5840 5839 5838 5836 5835 5834 5832 5831 5829 5827 5826 5825 5823 5822 5820 5819 5817 5816 5815 5814 5813 5813 5812 5811 5810 5808 5807 5806 5806 5805 5805 5805 5804 5804 5804 5803 5803 5802 5802 5801
5838 5838 5837 5837 5837 5836 5836 5839 5837 5835 5834 5833 5832 5830 5829 5827 5826 5824 5822 5821 5819 5818 5816 5814 5813 5812 5810 5809 5808 5808 5807 5807 5806 5805 5803 5802 5801 5800 5800 5800 5799 5799 5799 5799 5798 5798 5797 5797 5797
5833 5833 5833 5833 5833 5832 5831 5835 5832 5831 5829 5828 5826 5825 5824 5822 5820 5818 5817 5815 5813 5812 5810 5809 5807 5806 5805 5804 5803 5802 5801 5800 5800 5799 5798 5797 5796 5795 5794 5794 5794 5793 5793 5793 5793 5793 5792 5792 5792